METEOR 1-17 DEB

Satellite information

Favourite Embed

Satellite Type and Status

DEBRISIN ORBIT

Key statistics

Satellite METEOR 1-17 DEB at a glance.

Uptime

18642

Days in orbit

Revolutions

≈ 14.2

Per day

Orbit

LEO

Low Earth Orbit

Inclination

81.2

Latest

Satellite identification and parameters

Extended collection of information and parameters for METEOR 1-17 DEB.

Object identification

Identified? True

Debris? True

Object name: METEOR 1-17 DEB

International designator: 1974-025M

Object number (NORAD): 57726

Object ID (CCSDS): 57726

Country: COMMONWEALTH OF INDEPENDENT STATES (CIS)

Current information (Y/N): Y

RCS size: SMALL

Orbital parameters

Period: 101.506 minutes

Inclination: 81.2115 deg

SMA: 7208.118 km

Apoapsis: 835.508 km

Periapsis: 824.459 km

RAAN: 328.5578 deg

Eccentricy: 0.0007664

Argument of periapsis: 28.223 deg

Mean anomaly: 331.936 deg

Mean motion: 14.18632451 rev/day

Mean motion (dot): 0.00003743 rev/day2

B* drag term: 0.0018004 1/REarth

Two-line elements (TLE)

Creation date: May 8, 2025, 3:01 a.m.

Reference frame: TEME

Reference center: EARTH

Epoch: May 7, 2025, 1 p.m. UTC

TLE line 0: 0 METEOR 1-17 DEB

TLE line 1: 1 57726U 74025M 25127.54175720 .00003743 00000-0 18004-2 0 9995

TLE line 2: 2 57726 81.2115 328.5578 0007664 28.2230 331.9360 14.18632451 87459

Live tracking on map

Real-time ground track for satellite METEOR 1-17 DEB.

In-orbit conjunctions

A list of the most updated potential collisions computed for object METEOR 1-17 DEB.

Target Orbit TCA Probability of collision Miss distance Type
NOAA 16 DEB SSO 2025-03-28 11:46:50 0.0001987095 48.0 (m) DEBRIS
CZ-6A DEB LEO 2024-11-16 04:40:37 0.000201075 999.0 (m) DEBRIS
FENGYUN 1C DEB SSO 2024-11-11 18:42:40 0.0009185701 212.0 (m) DEBRIS
SL-19 R/B SSO 2024-11-11 10:13:12 0.0001590939 797.0 (m) ROCKET BODY

Associated space launch

The Meteor-1 series was the first series of Soviet meteorological satellites.

METEOR 1-17 DEB was lifted into orbit during the mission ‘Vostok 8A92M | Meteor-1 17 (22L)’, on board a Vostok 8A92M space rocket.

The launch took place on April 24, 1974, 11:50 a.m. from 43/4 (43R).

For more information about the launch, click the button.

Launch to space Vostok 8A92M | Meteor-1 17 (22L)
Vostok 8A92M | Meteor-1 17 (22L)

Agency: N/A

Status: Launch Successful

Launch date: April 24, 1974, 11:50 a.m. UTC

Rocket: Vostok 8A92M

Launch pad: 43/4 (43R)

Location: Plesetsk Cosmodrome, Russian Federation

...

Latest news about this satellite

There are no fresh news available about this satellite. Check back as we update our databases every day.


Newsletter sign-up

Weekly statistics, charts and insights to help you stay on top of the space industry.